Погода в Арсеньеве

Россия / Приморский край     44°09′43″N   133°16′11″E
темп.,
°C
ветер,
м/с
пор.,
м/с
влажн.,
%
обл.,
%
осадки,
мм/ч
давл.,
гПа
погр.,
м
25 октября, пн
пн2501:00+3юв11650 0.0 102410
04:00+2ююв01670 0.0 102410
07:00+2юв01730 0.0 102410
10:00+7ю01620 0.0 1023166
13:00+13з24460 0.0 1021840
16:00+14з24381 0.0 10191565
19:00+8зюз116025 0.0 102010
22:00+6ю11750 0.0 102112
26 октября, вт
вт2601:00+5юв11830 0.0 102010
04:00+4юв11900 0.0 101910
07:00+3вюв00900 0.0 102010
10:00+8ю01650 0.0 1019178
13:00+14зюз35425 0.0 10161064
16:00+15юз35432 0.0 10141555
19:00+9юз22665 0.0 101512
22:00+7ююв017495 0.0 101411
27 октября, ср
ср2701:00+6ю1180100 0.0 101311
04:00+6юз1186100 0.0 101314
07:00+7зюз2388100 0.7 1013117
10:00+9юз247777 0.8 1014483
13:00+11зсз34525 0.1 10121433
16:00+11зсз45415 0.1 10111636
19:00+7ю115789 0.0 101113
22:00+7зсз3572100 0.2 1012389
28 октября, чт
чт2801:00+4юв119288 6.0 1013111
04:00+4з3792100 6.2 1014447
07:00+4зсз4797100 1.8 1016831
10:00+4зсз4993100 1.3 1021892
13:00+5зсз487579 0.2 10221027
16:00+7сз3967100 0.4 10221269
19:00+5з2375100 0.0 102559
22:00+4з22775 0.0 102614
29 октября, пт
пт2901:00+2з11864 0.0 102713
04:00+1ююз11900 0.0 102910
07:000ююв11920 0.0 103010
10:00+4юв00740 0.0 1030202
13:00+9всв01520 0.0 1028610
16:00+10в01460 0.0 1027642
19:00+6св11630 0.0 102710
22:00+4ююв11720 0.0 102810